FENGYUN 1C DEB, 35167

Orbit data source: Space-Track

FENGYUN 1C DEB, 35167 is space debris in SSO originally from a launch on Mon, 10 May 1999 UTC launched from the Taiyaun Space Center, China (TSC). Fengyun 1C debris stems from the Chinese weather satellite Fengyun-1C, which was intentionally destroyed by a Chinese anti-satellite missile in 2007. This event dramatically increased the amount of space debris, with thousands of trackable fragments posing hazards to satellites and human spaceflight. The Fengyun 1C debris cloud has become a focal point in discussions about space sustainability and the need for international regulations to prevent the creation of new debris.

Loading next visibility...
Identifier
35167, 1999-025DMX
Orbit
SSO
Country
Flag of CNCN / PRC
Related business
Manufacturer
Unknown
Mission
Spacecraft
Bus & Motor
Unknown
Mass
Unknown
Launch date (UTC)
1999-05-10 (27 years ago)
Launch vehicle
Unknown
Launch site
Taiyaun Space Center, China (TSC)
Object type
Payload
Rocket body
Debris
Shape & HBR
Unknown shape, 0.1 m
Radar Cross Section
Small (<0.1 m²)

Expand to show TLE details & history
Last TLE update: 2 days ago

TLE from 2 days ago
0 FENGYUN 1C DEB
1 35167U 99025DMX 26253.19969384  .00000844  00000-0  24875-3 0  9999
2 35167  98.4663 244.7331 0228454 120.3952 242.0029 14.32074132739040
Epoch: 2026-09-10T04:47Z
TLE epoch observation values (Epoch: 2026-09-10T04:47:33.547Z)
Latitude
0.00003°
Longitude
-176.39751°
Altitude
867.45 km
Speed
7.377 km/s
True Right ascension
16h 18m 55s
True Declination
0° 00' 00"
Sunlit
Object was in daylight at epoch
Visualization orbit readout
Latitude
Unknown
Longitude
Unknown
Altitude
Unknown
Speed
Unknown
Apparent Right ascension
Unknown
Apparent Declination
Unknown
Sunlit
N/A
Visualization observer readout
Local Sidereal Time
01:31:04
Azimuth
Unknown
Elevation
Unknown
Doppler factor
Unknown
Orbital elements
Apogee altitude
945.51 km
Perigee altitude
618.36 km
Semi-major axis
7,160.072 km
Eccentricity
0.02285
Inclination
98.4663°
RAAN
244.7331°
Arg. of periapsis
120.3952°
True anomaly
239.72257°
Mean anomaly
242.0029°
Eccentric anomaly
240.85963°
Mean motion
3.58234 °/min
Orbital period
100.49 mins
BSTAR
0.00024875
Loading maneuver chart data...
Computing Atmospheric mass density...

Documentation

Showing up to 5 results
|